EW6618 Weather Reports


Display with metric or nautical units.
time (UTC)temp
F
wind
direction
speed
MPH
gust
MPH
rain 1hr
in
rain 24hr
in
rain mn
in
humidity
%
barometer
mb
20260508101840 60 101 0.0 0.0 0.00 0.00 0.00 91 1015.6
20260508100900 60 101 0.0 0.0 0.00 0.00 0.00 92 1015.7
20260508095850 60 101 0.0 0.0 0.00 0.00 0.00 91 1015.5
20260508094822 60 184 0.0 0.0 0.00 0.00 0.00 92 1015.8
20260508093842 60 184 0.0 0.0 0.00 0.00 0.00 92 1015.9
20260508092854 60 223 0.0 0.0 0.00 0.00 0.00 92 1015.9
20260508090651 60 240 0.0 0.0 0.00 0.00 0.00 92 1016.1
20260508085618 60 248 0.0 0.0 0.00 0.00 0.00 92 1016.2
20260508084632 60 263 0.0 2.0 0.00 0.00 0.00 92 1016.1
20260508083653 60 200 0.0 1.0 0.00 0.00 0.00 92 1016.1
20260508082641 60 248 0.0 1.0 0.00 0.00 0.00 92 1016.2
20260508081651 60 216 0.0 3.0 0.00 0.00 0.00 92 1016.3
20260508080642 60 224 1.0 3.0 0.00 0.00 0.00 92 1016.5
20260508075630 60 236 1.0 3.0 0.00 0.00 0.00 92 1016.6
20260508074624 60 110 1.0 3.0 0.00 0.00 0.00 92 1016.6
20260508073617 60 238 0.0 2.0 0.00 0.00 0.00 92 1016.6
20260508072546 60 163 0.0 3.0 0.00 0.00 0.00 92 1016.6
20260508071542 60 248 1.0 4.0 0.00 0.00 0.00 92 1016.6
20260508070550 60 208 1.0 4.0 0.00 0.00 0.00 92 1016.5
20260508065551 60 200 1.0 4.0 0.00 0.00 0.00 92 1016.5
20260508064528 60 96 1.0 4.0 0.00 0.00 0.00 92 1016.4
20260508063501 60 76 1.0 4.0 0.00 0.00 0.00 91 1016.3
20260508062458 60 141 1.0 5.0 0.00 0.00 0.00 91 1016.3
20260508061438 60 217 2.0 5.0 0.00 0.00 0.00 91 1016.3
20260508055337 60 30 1.0 5.0 0.00 0.00 0.00 91 1016.3
20260508054354 61 218 2.0 6.0 0.00 0.00 0.00 91 1016.3
20260508053403 60 102 2.0 6.0 0.00 0.00 0.00 91 1016.5
20260508052339 60 120 1.0 4.0 0.00 0.00 0.00 91 1016.4
20260508051336 60 235 2.0 4.0 0.00 0.00 0.00 91 1016.4
20260508050334 61 143 2.0 8.0 0.00 0.00 0.00 91 1016.3
20260508045327 61 71 3.0 8.0 0.00 0.00 0.00 91 1016.2
20260508044254 61 119 1.0 5.0 0.00 0.00 0.00 92 1016.2
20260508043224 61 182 1.0 3.0 0.00 0.00 0.00 92 1016.0
20260508042215 61 223 1.0 4.0 0.00 0.00 0.00 91 1015.9
20260508041208 60 151 1.0 4.0 0.00 0.00 0.00 91 1015.6
20260508040204 60 250 2.0 4.0 0.00 0.00 0.00 91 1015.5
20260508035201 60 242 3.0 6.0 0.00 0.00 0.00 91 1015.3
20260508032950 60 307 3.0 7.0 0.00 0.00 0.00 90 1015.0
20260508030831 61 319 3.0 7.0 0.00 0.00 0.00 89 1014.8
20260508025837 61 282 4.0 7.0 0.00 0.00 0.00 88 1014.8
20260508024816 62 253 4.0 9.0 0.00 0.00 0.00 87 1014.7
20260508023800 62 264 5.0 9.0 0.00 0.00 0.00 86 1014.5
20260508022727 63 290 5.0 8.0 0.00 0.00 0.00 85 1014.5
20260508021718 64 72 5.0 8.0 0.00 0.00 0.00 84 1014.4
20260508020740 64 246 6.0 9.0 0.00 0.00 0.00 84 1014.4
20260508015705 64 197 6.0 10.0 0.00 0.00 0.00 83 1014.3
20260508013600 65 294 6.0 9.0 0.00 0.00 0.00 82 1014.3
20260508012549 65 225 6.0 9.0 0.00 0.00 0.00 82 1014.2
20260508005329 65 283 6.0 9.0 0.00 0.00 0.00 80 1014.3
20260508004311 66 257 6.0 9.0 0.00 0.00 0.00 79 1014.3
20260508003304 66 253 6.0 10.0 0.00 0.00 0.00 80 1014.4
20260508002307 66 256 7.0 10.0 0.00 0.00 0.00 80 1014.3
20260508001303 66 231 6.0 9.0 0.00 0.00 0.00 81 1014.4
20260508000257 66 163 6.0 9.0 0.00 0.00 0.00 82 1014.3
20260507234145 66 306 6.0 10.0 0.00 0.00 0.00 80 1014.5
20260507233117 66 217 6.0 11.0 0.00 0.00 0.00 81 1014.5
20260507232130 65 166 7.0 11.0 0.00 0.00 0.00 82 1014.7
20260507231104 65 304 8.0 13.0 0.00 0.00 0.00 83 1014.6
20260507230101 66 281 7.0 13.0 0.00 0.00 0.00 81 1014.6
20260507225030 66 293 8.0 11.0 0.00 0.00 0.00 80 1014.6
20260507224005 67 233 7.0 11.0 0.00 0.00 0.00 80 1014.6
20260507223004 67 277 7.0 11.0 0.00 0.00 0.00 78 1014.7
20260507221950 68 222 7.0 11.0 0.00 0.00 0.00 78 1014.9
20260507221007 67 232 8.0 11.0 0.00 0.00 0.00 78 1014.9
20260507220011 67 220 8.0 11.0 0.00 0.00 0.00 77 1015.1
20260507214949 67 231 8.0 13.0 0.00 0.00 0.00 77 1015.4
20260507213957 67 184 8.0 13.0 0.00 0.00 0.00 78 1015.5
20260507212943 67 95 8.0 13.0 0.00 0.00 0.00 77 1015.4
20260507210842 67 253 8.0 12.0 0.00 0.00 0.00 77 1015.8
20260507205854 67 9 8.0 12.0 0.00 0.00 0.00 79 1015.9
20260507203748 67 291 8.0 11.0 0.00 0.00 0.00 77 1016.1
20260507202755 67 222 8.0 11.0 0.00 0.00 0.00 77 1016.2
20260507200634 67 315 8.0 11.0 0.00 0.00 0.00 78 1016.2
20260507195646 67 217 7.0 10.0 0.00 0.00 0.00 77 1016.4
20260507194612 67 288 7.0 10.0 0.00 0.00 0.00 77 1016.5
20260507193556 67 105 7.0 10.0 0.00 0.00 0.00 77 1016.6
20260507191417 67 70 6.0 10.0 0.00 0.00 0.00 77 1016.7
20260507190358 67 245 6.0 9.0 0.00 0.00 0.00 77 1016.8
20260507185326 68 281 5.0 9.0 0.00 0.00 0.00 75 1016.8
20260507184339 68 199 4.0 8.0 0.00 0.00 0.00 75 1016.9
20260507183334 68 31 4.0 8.0 0.00 0.00 0.00 75 1016.9
20260507182348 68 219 4.0 8.0 0.00 0.00 0.00 75 1016.8
20260507181342 68 120 4.0 8.0 0.00 0.00 0.00 76 1016.9
20260507180323 68 203 4.0 6.0 0.00 0.00 0.00 77 1016.9
20260507175324 67 241 4.0 9.0 0.00 0.00 0.00 77 1017.0
20260507174304 67 41 4.0 9.0 0.00 0.00 0.00 77 1016.9
20260507172221 67 233 4.0 7.0 0.00 0.00 0.00 77 1017.1
20260507171218 67 264 4.0 7.0 0.00 0.00 0.00 77 1017.1
20260507170153 67 246 3.0 7.0 0.00 0.00 0.00 77 1017.0
20260507165135 67 8 2.0 4.0 0.00 0.00 0.00 78 1017.0
20260507164101 66 255 2.0 4.0 0.00 0.00 0.00 78 1017.1
20260507161924 66 20 2.0 5.0 0.00 0.00 0.00 80 1017.1
20260507160946 65 262 2.0 5.0 0.00 0.00 0.00 81 1017.0
20260507155943 65 249 2.0 5.0 0.00 0.00 0.00 81 1017.1
20260507155002 64 66 3.0 4.0 0.00 0.00 0.00 83 1017.1
20260507153949 65 187 2.0 4.0 0.00 0.00 0.00 84 1017.1
20260507152950 64 245 1.0 4.0 0.00 0.00 0.00 85 1017.1
20260507151950 63 9 3.0 6.0 0.00 0.00 0.00 86 1017.2
20260507150923 62 288 3.0 6.0 0.00 0.00 0.00 87 1017.2
20260507145926 62 295 2.0 5.0 0.00 0.00 0.00 88 1017.1
20260507143811 61 173 1.0 5.0 0.00 0.00 0.00 90 1017.1
20260507141608 60 251 1.0 4.0 0.00 0.00 0.00 91 1016.9
20260507140600 60 274 2.0 4.0 0.00 0.00 0.00 91 1016.7
20260507135557 59 271 1.0 3.0 0.00 0.00 0.00 92 1016.7
20260507133411 59 290 1.0 3.0 0.00 0.00 0.00 91 1016.6
20260507132400 59 266 1.0 3.0 0.00 0.00 0.00 91 1016.4
20260507130310 59 272 1.0 3.0 0.00 0.00 0.00 91 1016.3
20260507124122 58 269 2.0 4.0 0.00 0.00 0.00 91 1016.2
20260507123126 58 226 1.0 3.0 0.00 0.00 0.00 91 1016.2
20260507122147 58 247 0.0 0.0 0.00 0.00 0.00 91 1016.2
20260507121126 58 287 0.0 3.0 0.00 0.00 0.00 91 1016.3
20260507120121 58 264 0.0 0.0 0.00 0.00 0.00 91 1016.2
20260507115132 58 264 0.0 0.0 0.00 0.00 0.00 91 1016.0
20260507114118 58 248 0.0 3.0 0.00 0.00 0.00 91 1016.1
20260507113112 58 255 0.0 1.0 0.00 0.00 0.00 90 1016.0
20260507112127 58 229 1.0 3.0 0.00 0.00 0.00 91 1016.1
20260507111134 58 184 0.0 2.0 0.00 0.00 0.00 91 1016.3
20260507110144 58 102 0.0 2.0 0.00 0.00 0.00 91 1016.2
20260507105118 58 155 0.0 2.0 0.00 0.00 0.00 90 1016.4
20260507104130 59 187 0.0 3.0 0.00 0.00 0.00 91 1016.5
20260507103058 59 199 0.0 3.0 0.00 0.00 0.00 91 1016.6